Vorticity
11 11 12 11 13 15 16 19 19 18 15 13 16 12 10 11 14 8 11 6 3 16
11 11 11 10 9 10 15 13 16 15 13 14 13 12 12 11 13 17 11 7 12 10
12 14 13 12 11 12 12 14 14 9 6 10 8 5 5 8 10 13 16 8 13 6
16 14 15 16 18 19 16 13 13 11 7 6 6 4 12 10 8 11 15 10 9 13
14 18 19 24 27 20 24 25 25 24 22 25 25 23 27 24 22 15 15 10 8 16
13 17 20 9 5 17 3 12 6 27 23 21 14 27 16 14 26 15 16 13 11 23
19 17 7 10 9 14 14 14 45 17 15 12 18 20 15 27 19 20 14 12 10 13
22 6 10 12 11 23 14 10 10 17 18 9 18 18 20 25 12 12 15 10 19 7
23 3 15 5 10 4 13 13 20 13 22 22 33 7 47 4 -3 22 26 11 41 9
19 3 12 -1 15 24 17 22 22 13 -2 20 21 -5 18 31 13 49 16 28 49 48
6 10 11 11 16 13 6 27 20 20 32 12 6 4 6 23 15 9 4 10 17 7
6 7 9 16 9 14 5 28 17 10 15 5 -5 25 16 12 10 6 -0 1 12 5
6 6 15 10 13 13 13 13 -14 11 11 4 9 12 18 -0 -2 6 8 5 9 2
3 11 4 5 18 10 10 17 9 5 9 12 25 14 -5 0 5 4 12 11 10 18
Height
3043 3039 3035 3031 3028 3025 3022 3021 3020 3018 3017 3018 3020 3020 3022 3024 3027 3029 3032 3035 3038 3041
3036 3031 3027 3024 3020 3017 3014 3012 3011 3010 3009 3010 3011 3012 3013 3014 3017 3019 3022 3026 3030 3032
3028 3023 3019 3015 3012 3008 3005 3003 3002 3002 3001 3002 3003 3003 3004 3005 3008 3010 3014 3018 3021 3025
3018 3014 3009 3005 3001 2998 2995 2993 2993 2992 2991 2992 2992 2993 2994 2995 2998 3001 3005 3010 3014 3018
3011 3006 3001 2997 2994 2991 2988 2986 2983 2982 2981 2982 2981 2981 2982 2985 2989 2993 2997 3002 3007 3009
3005 3000 2997 2994 2990 2987 2984 2980 2976 2974 2973 2973 2974 2972 2974 2976 2980 2985 2990 2995 3000 3003
3001 2997 2994 2991 2987 2983 2979 2975 2969 2969 2968 2968 2967 2967 2968 2970 2974 2979 2985 2990 2994 2997
2998 2995 2991 2987 2983 2979 2975 2972 2969 2966 2965 2964 2963 2963 2965 2968 2973 2978 2983 2986 2986 2992
2994 2992 2988 2984 2981 2977 2973 2969 2966 2965 2964 2963 2961 2962 2963 2966 2971 2974 2980 2983 2984 2984
2990 2988 2985 2982 2979 2975 2971 2967 2964 2963 2964 2964 2963 2964 2965 2968 2972 2972 2979 2982 2981 2983
2988 2986 2983 2981 2978 2976 2972 2968 2965 2964 2963 2966 2966 2967 2968 2970 2973 2975 2980 2982 2983 2984
2986 2985 2982 2981 2978 2976 2975 2970 2968 2967 2967 2967 2969 2968 2969 2972 2974 2978 2980 2982 2982 2984
2986 2984 2982 2981 2978 2977 2976 2974 2972 2971 2971 2970 2972 2973 2973 2975 2977 2979 2981 2982 2983 2984
2985 2984 2982 2981 2978 2978 2977 2975 2975 2974 2973 2973 2973 2974 2976 2978 2979 2980 2980 2982 2983 2984